SCP
2 2 2 2 1 1 1 1 1 0 0 0 0 1 1 1 1 1 1 1 1 1 1 0 0 0 0 0 0 0 0 0 0 1 1 1 0 0 0 0 0 0 0
2 2 2 2 1 1 1 1 1 0 0 0 0 1 1 1 1 1 1 1 1 1 1 0 0 0 0 0 0 0 0 0 0 0 0 0 0 0 0 0 0 0 0
2 2 2 2 1 1 1 1 1 0 0 0 0 1 1 1 1 1 1 1 1 1 1 1 0 0 0 0 0 0 0 0 0 0 0 0 0 0 0 1 0 0 0
2 2 2 2 1 1 1 1 1 1 0 1 1 1 1 1 1 1 1 1 1 1 1 1 0 0 1 1 1 1 0 0 0 0 0 0 0 0 1 1 1 1 0
2 2 2 2 1 1 1 1 1 1 1 1 1 1 1 1 1 1 1 1 1 1 1 1 0 0 1 1 1 1 0 0 0 0 0 0 0 0 1 1 1 1 1
2 2 2 2 2 1 1 1 1 1 1 1 1 1 1 1 1 1 1 1 1 1 1 0 0 1 1 1 1 1 0 0 0 0 0 0 0 1 1 1 1 1 1
2 2 2 2 2 1 1 1 1 1 1 1 1 1 1 1 1 1 1 1 1 1 1 1 1 1 1 1 1 1 1 1 0 0 0 0 0 1 1 1 1 1 1
1 1 2 2 2 1 1 1 1 1 1 1 1 1 1 1 1 1 1 1 1 1 1 1 1 1 1 1 1 1 1 1 0 0 0 0 0 1 1 1 1 1 1
0 1 1 2 2 1 1 1 1 1 1 1 1 1 1 1 1 1 1 1 1 1 1 1 1 1 1 1 1 1 1 1 0 0 0 0 0 1 1 1 1 1 1
0 1 1 1 1 1 1 0 0 0 1 1 1 0 0 1 1 1 1 1 1 1 1 1 1 1 1 1 0 1 1 1 0 0 0 0 0 1 1 1 1 1 1
0 1 1 1 1 1 1 0 0 0 0 0 0 0 0 0 0 0 0 0 0 1 1 1 1 1 1 1 0 0 0 1 0 0 0 0 0 1 1 1 1 1 1
0 0 1 1 1 1 1 0 0 0 0 0 0 0 0 0 0 0 0 0 0 0 0 1 1 1 1 0 0 0 0 0 0 0 0 0 1 1 1 1 1 1 1
0 0 1 1 1 1 1 0 0 0 0 0 0 0 0 0 0 0 0 0 0 0 0 0 1 1 1 0 0 0 0 0 0 0 0 0 1 1 1 1 1 1 1
0 0 0 1 1 1 1 0 0 0 0 0 0 0 0 0 0 0 0 0 0 0 0 0 0 1 1 0 0 0 0 0 0 0 0 0 1 1 2 1 1 1 1
1 0 0 0 0 1 1 0 0 1 0 0 0 0 0 0 0 0 0 0 0 0 0 0 0 0 1 1 0 0 0 0 0 0 0 0 0 1 1 1 1 1 1
1 1 0 0 0 0 0 0 0 1 1 0 0 0 0 0 0 0 0 0 0 0 0 0 0 0 0 1 0 0 0 0 0 0 0 0 0 1 1 1 1 1 1
1 1 1 0 0 0 0 0 0 1 1 0 0 0 0 0 0 0 0 0 0 0 0 0 0 0 0 0 0 0 0 0 0 0 0 0 0 0 1 1 1 1 1
0 1 1 0 0 0 0 0 1 1 1 0 0 0 0 0 0 0 0 0 0 0 0 0 0 0 0 0 0 0 0 0 0 0 0 0 0 0 0 1 1 1 1
0 0 0 0 0 0 0 0 1 1 1 0 0 0 0 0 0 0 0 0 0 0 0 0 0 0 0 0 0 0 0 0 0 0 0 0 0 0 0 0 0 1 1
0 0 0 0 0 0 0 0 0 1 1 0 0 0 0 0 0 0 0 0 0 0 0 0 0 0 0 0 0 0 0 0 0 0 0 0 0 0 0 0 0 0 0
0 0 0 0 0 0 0 0 0 1 1 0 0 0 0 0 0 0 0 0 0 0 0 0 0 0 0 0 0 0 0 0 0 0 0 0 0 0 0 0 0 0 0
0 0 0 0 0 0 0 0 0 1 0 0 0 0 0 0 0 0 0 0 0 0 0 0 0 0 0 0 0 0 0 0 0 0 0 0 0 0 0 0 0 0 0
0 0 0 0 0 1 1 0 0 1 0 0 0 0 0 0 0 0 0 0 0 0 0 0 0 0 0 0 0 0 0 0 0 0 0 0 0 0 0 0 0 0 0
0 0 0 0 0 1 1 0 0 0 0 0 0 0 0 0 0 0 0 0 0 0 0 0 0 0 0 0 0 0 0 0 0 0 0 0 0 0 0 0 0 0 0
0 0 0 0 1 1 1 0 0 0 0 0 0 0 0 0 0 0 0 0 0 0 0 0 0 0 0 0 0 0 0 0 0 0 0 0 0 0 0 0 0 0 0
0 0 0 1 1 1 0 0 0 0 0 0 0 0 0 0 0 0 0 0 0 0 0 0 0 0 0 0 0 0 0 0 0 0 0 0 0 0 0 0 0 0 0
Wind_Speed
1 1 3 5 6 7 8 9 9 9 9 9 9 10 10 10 10 10 10 10 10 10 11 11 11 11 11 12 12 12 12 12 12 12 12 12 11 11 12 12 11 7 12
4 3 4 5 6 7 7 8 9 8 8 8 9 9 9 9 9 9 10 10 10 10 10 11 11 11 11 11 11 11 12 12 12 11 11 10 10 11 11 11 11 7 11
5 4 4 5 6 7 7 8 8 8 8 8 8 8 8 8 8 9 9 9 9 9 10 10 10 10 10 10 11 11 11 11 11 11 10 5 6 10 10 10 10 10 10
5 4 4 5 7 7 7 7 7 8 8 8 8 8 8 8 8 8 8 8 8 8 8 9 9 10 9 10 10 10 10 10 11 10 6 4 4 8 9 9 9 10 9
4 3 4 6 7 7 7 7 7 8 8 8 8 8 8 8 8 8 7 7 8 8 8 8 8 9 9 9 9 9 9 9 10 8 5 4 3 7 8 8 9 9 8
4 3 4 6 7 7 7 7 7 7 7 7 7 7 7 7 7 7 7 7 7 7 7 7 7 8 8 8 9 8 8 8 7 4 4 4 3 6 7 7 7 8 7
3 3 4 6 6 7 7 7 7 6 6 6 6 6 6 6 6 6 6 6 6 6 6 6 7 7 7 7 7 7 7 7 5 3 3 3 3 5 5 6 6 6 6
4 3 3 5 5 5 6 6 6 6 6 6 6 5 6 6 6 5 5 5 5 5 5 5 6 6 6 6 6 7 7 6 4 3 2 2 3 4 4 4 4 5 5
4 4 3 2 3 4 5 4 5 5 5 6 6 6 6 5 5 5 5 5 4 5 5 5 5 5 5 5 5 6 6 6 3 2 2 1 2 3 2 3 3 3 3
3 3 3 2 2 2 2 4 4 4 5 5 5 6 6 6 5 5 4 4 5 5 5 5 5 5 5 5 5 5 5 4 2 2 2 2 3 2 2 2 2 2 2
2 2 3 3 2 2 2 3 3 3 4 5 4 6 5 3 3 3 4 4 4 4 4 4 4 5 5 5 5 5 4 1 1 1 2 3 3 2 2 2 2 2 2
3 2 2 3 3 2 2 2 1 1 2 2 2 3 2 2 2 3 4 5 5 4 4 5 4 4 4 2 3 4 1 1 1 1 2 4 3 3 3 3 3 3 3
4 3 2 3 3 3 2 1 1 1 1 1 2 2 2 2 1 2 1 2 3 3 2 3 3 2 1 1 1 1 1 1 1 1 2 4 4 4 4 4 4 4 4
4 4 3 3 3 3 2 1 1 1 1 1 1 2 2 1 1 1 1 0 1 1 1 1 1 2 2 1 1 1 1 1 1 1 2 5 5 5 6 5 5 5 5
4 4 3 4 4 3 2 2 2 2 2 1 1 1 2 1 1 1 1 0 0 0 0 1 1 2 2 1 1 1 2 2 2 2 2 4 5 6 6 7 6 6 5
5 4 3 4 4 4 3 2 2 2 2 2 1 1 1 2 1 1 1 1 0 0 0 0 1 1 2 1 1 1 2 2 2 2 2 3 5 6 6 7 7 7 6
5 4 4 4 4 4 3 3 2 2 2 2 2 2 1 1 2 1 1 1 1 1 0 0 1 1 2 2 2 2 2 2 3 3 3 2 3 4 6 7 7 7 7
5 5 5 4 4 3 3 3 2 2 2 2 2 1 2 1 2 2 1 1 1 0 0 0 0 1 2 2 2 2 2 3 3 3 3 3 2 2 4 6 6 7 7
6 5 5 4 4 4 3 2 2 2 2 2 2 2 2 2 2 2 2 1 1 0 0 1 0 0 1 2 3 3 3 3 3 3 3 3 3 2 2 4 6 6 7
5 5 5 5 4 3 2 1 1 1 1 2 2 2 2 2 1 1 1 1 1 0 1 1 1 1 1 2 3 3 3 3 3 3 3 3 2 2 2 2 2 4 6
4 4 5 5 4 3 2 2 2 2 2 1 2 2 2 2 2 2 1 1 1 1 2 2 1 1 1 0 1 3 3 3 3 2 2 2 2 3 2 2 2 2 3
5 5 5 5 5 4 3 3 2 2 2 2 1 1 2 2 2 2 2 2 2 1 1 1 1 1 1 0 0 1 3 3 2 2 2 2 2 2 2 3 2 3 3
6 6 6 6 5 5 4 2 1 1 0 0 1 1 1 2 2 2 2 2 2 2 2 2 2 2 2 1 1 1 1 3 4 2 2 2 2 2 3 2 3 3 3
5 5 5 5 5 5 5 4 5 3 3 3 2 2 1 1 1 2 2 2 2 2 2 2 2 2 2 2 1 1 2 2 2 4 3 2 2 3 4 3 3 3 3
3 3 4 4 4 4 5 5 5 4 4 2 1 2 1 1 1 1 1 1 1 1 2 1 2 2 2 2 2 1 2 2 2 3 5 4 4 3 3 3 3 2 3
1 1 2 3 4 4 5 5 6 6 5 4 3 3 2 1 1 1 1 1 1 2 2 2 2 2 2 2 2 2 2 2 2 3 5 6 6 4 4 3 2 2 2
Wind_Direction
188 197 140 116 111 105 105 102 98 95 93 92 89 85 83 82 81 79 77 75 73 71 69 68 66 65 63 63 63 64 61 60 60 60 60 62 65 68 68 64 59 54 62
158 152 125 114 116 109 105 106 104 101 98 95 92 88 85 84 82 81 78 76 76 74 71 68 65 64 63 63 64 64 61 59 59 56 55 54 60 65 67 65 62 58 60
133 137 127 113 116 113 107 108 109 107 104 100 97 93 89 86 83 82 80 79 76 74 73 68 66 65 62 64 64 63 61 57 56 53 50 41 51 63 64 63 61 59 57
130 132 127 117 114 112 107 108 114 114 108 103 100 97 92 89 82 82 81 79 75 72 72 70 68 66 64 63 63 63 61 58 55 50 42 32 42 62 63 62 59 58 55
116 128 132 121 119 113 107 107 113 116 113 108 104 99 94 90 83 81 80 77 74 71 69 68 69 68 66 63 62 63 60 58 55 44 30 23 33 64 65 62 58 55 51
107 114 129 120 119 114 108 104 112 116 113 110 104 100 97 92 84 79 77 76 75 70 68 67 69 70 66 63 61 61 58 58 54 39 27 18 26 62 66 63 59 55 51
114 113 122 109 112 114 110 106 103 107 107 105 101 100 96 90 85 79 76 77 74 69 66 64 66 67 64 60 59 60 59 57 56 41 24 14 33 51 58 57 55 54 51
123 120 122 110 102 104 108 106 102 103 102 100 95 93 93 90 85 79 76 75 73 70 69 63 62 62 60 56 54 56 56 56 54 38 14 360 34 43 46 51 54 51 48
119 115 117 115 110 103 100 99 98 100 101 99 93 85 77 76 76 71 67 69 69 68 64 58 57 55 54 49 48 51 48 45 43 17 359 344 16 16 26 32 35 43 42
116 121 130 118 104 99 104 100 93 98 100 97 88 77 72 69 65 60 54 58 62 60 54 50 47 43 41 38 39 43 39 33 28 3 334 333 353 347 354 1 6 7 17
125 137 148 138 126 121 122 110 98 99 97 95 85 82 76 74 69 58 50 48 51 48 44 42 41 37 33 29 29 31 28 21 7 343 312 336 328 318 318 330 336 337 337
169 167 168 157 151 140 134 112 98 87 97 94 93 88 83 80 68 60 50 47 40 31 25 26 25 22 25 12 11 17 15 3 351 328 318 330 319 310 307 307 307 315 316
180 165 180 170 161 149 143 145 121 88 87 104 107 95 93 83 76 64 59 43 35 31 23 12 8 5 10 1 354 349 345 342 323 308 318 323 311 303 298 294 293 301 307
181 183 174 171 160 162 158 169 155 142 144 137 154 131 117 111 106 118 108 58 37 23 16 8 356 347 355 349 343 335 325 303 291 287 304 320 308 299 292 288 289 292 295
186 190 180 173 165 169 162 180 168 177 177 175 163 155 142 140 152 163 169 136 63 20 11 352 349 339 333 333 328 325 307 294 282 277 291 310 305 297 295 289 288 288 288
194 190 180 182 176 173 171 181 186 191 183 174 173 188 179 171 180 194 201 191 223 235 258 275 295 324 310 296 303 305 294 290 276 269 266 289 300 301 298 296 289 289 290
193 187 184 190 182 177 183 188 181 188 180 186 190 193 185 191 193 196 203 215 226 222 244 299 323 328 319 309 297 292 289 290 279 271 267 264 272 294 300 296 294 295 294
183 187 192 189 183 187 193 195 186 186 184 193 194 193 203 210 205 193 206 232 234 207 178 257 310 325 315 306 290 286 285 280 277 270 266 263 260 268 287 295 298 296 296
189 188 192 191 186 191 195 195 186 185 192 195 196 198 208 213 214 203 206 226 215 217 232 263 292 245 292 305 297 289 285 277 273 277 274 267 257 258 259 288 298 305 300
188 186 191 191 188 183 179 172 177 181 203 201 201 207 208 207 210 216 199 200 188 193 264 260 268 284 257 280 302 303 292 281 274 268 274 281 272 264 264 278 291 300 298
184 187 192 188 186 174 175 181 196 208 212 212 217 214 210 202 200 207 208 190 183 201 228 229 240 275 277 285 320 314 305 285 275 271 284 286 292 278 269 275 283 281 289
190 192 192 188 187 186 191 188 195 188 203 214 227 233 217 201 203 207 200 198 200 210 232 215 210 231 257 204 219 300 320 323 322 302 288 273 287 296 290 292 288 284 284
200 199 197 196 192 194 186 167 164 133 73 228 236 242 240 213 199 203 213 207 198 195 220 223 213 205 238 257 219 209 248 277 313 299 292 294 295 302 300 299 298 296 289
216 205 200 195 195 196 182 181 188 193 209 220 223 230 248 228 211 206 209 210 201 204 218 228 217 215 206 235 260 253 240 235 267 302 302 299 311 311 305 301 301 293 287
217 207 204 195 199 197 192 193 196 205 216 214 211 218 236 235 222 211 209 206 213 215 221 231 234 223 216 219 225 242 258 272 250 256 285 300 306 293 286 289 293 295 301
237 230 212 200 213 206 202 203 202 205 207 205 214 220 231 236 233 230 215 208 226 228 227 233 232 228 229 229 234 235 231 237 246 249 265 287 293 293 291 278 277 283 287